Wind_Speed
86 90 95 100 102 107 112 108 104 104 105 103 92 78 71 70 69 67 64 59 54 52 50 47 44 40 43 42 42 44 43 43 41 43 44 45 38 33 25 21 27 27 26 31
79 86 90 96 101 104 108 106 104 109 111 105 85 80 77 74 73 66 64 61 57 51 52 52 47 43 46 42 44 45 42 39 41 45 48 42 41 37 23 24 28 32 33 35
74 79 86 93 98 100 105 107 108 117 114 95 89 87 83 77 77 71 66 64 61 56 52 49 49 48 47 48 47 44 44 41 40 43 49 46 44 43 26 23 26 30 36 35
69 74 81 87 95 98 103 107 106 109 104 96 84 88 86 84 83 80 72 68 64 60 55 51 52 54 54 53 53 47 45 41 41 44 45 48 49 43 29 24 25 26 34 29
66 69 75 82 91 98 101 99 101 101 99 96 94 90 88 86 85 81 74 68 68 65 60 58 59 60 59 57 53 47 46 41 45 44 48 49 51 51 34 26 26 26 26 29
66 67 71 78 87 94 87 86 97 98 97 103 99 89 91 88 90 85 79 77 77 69 67 68 65 62 61 59 56 50 48 46 44 46 48 49 49 51 33 30 26 25 27 33
65 65 67 74 79 80 80 81 93 95 93 98 92 90 89 87 87 89 86 83 78 73 76 72 68 65 63 60 57 54 52 47 47 48 48 51 50 51 39 30 30 29 32 37
61 61 63 69 71 71 75 81 89 91 93 100 99 92 91 88 86 86 89 84 80 79 78 75 70 67 65 59 55 52 50 51 51 50 47 47 43 51 53 41 36 37 38 35
58 60 61 62 65 68 74 75 81 86 88 94 97 96 93 89 85 84 86 86 82 82 77 73 68 66 62 56 51 49 51 48 51 51 51 43 50 51 51 42 32 46 38 36
56 57 57 59 62 64 64 68 76 80 83 95 97 94 89 91 90 84 84 87 82 77 75 70 67 64 62 54 49 49 50 51 53 56 51 45 51 53 53 50 41 41 38 39
52 53 53 55 57 59 56 62 70 72 78 88 93 95 92 91 91 87 85 85 77 70 67 60 59 57 54 55 52 51 52 56 57 52 49 48 54 49 53 50 36 39 41 41
46 48 48 50 51 51 52 58 64 65 77 82 90 88 88 88 88 89 89 82 79 73 70 63 61 57 59 55 54 54 55 56 54 54 49 52 55 56 56 46 38 37 42 43
41 41 42 44 44 46 52 58 62 66 76 84 88 91 90 88 87 87 82 79 76 72 70 69 67 64 61 59 59 61 60 58 58 54 53 56 59 55 57 45 45 42 42 47
36 37 39 41 45 50 55 57 61 69 74 79 86 92 91 88 85 84 78 74 70 67 67 67 63 63 64 63 63 62 56 55 55 55 54 58 63 59 52 48 46 46 42 46
34 37 40 44 49 55 58 61 65 73 80 82 86 90 95 91 87 82 78 74 69 66 63 59 61 62 63 65 63 55 54 53 56 55 60 62 61 57 56 44 44 48 50 50
37 41 46 51 55 58 60 66 71 73 71 76 80 83 88 89 88 83 78 74 70 67 63 62 60 56 59 61 57 55 57 57 59 61 61 61 61 63 63 58 49 50 56 57
42 47 51 55 55 55 55 54 57 63 67 71 73 77 82 84 83 79 75 71 69 67 66 64 62 60 61 60 58 58 61 59 57 58 61 62 65 66 66 70 68 68 64 61
46 49 51 52 52 55 62 65 64 66 64 64 65 66 71 75 75 73 71 69 67 67 67 65 62 63 61 57 59 63 63 62 61 61 61 64 68 68 69 67 62 55 56 59
43 47 50 52 55 60 58 58 61 58 55 54 54 56 57 60 64 65 66 66 68 67 67 66 65 62 57 56 59 62 57 55 57 59 59 63 65 65 58 50 46 49 52 57
42 43 47 53 57 55 55 58 56 54 53 51 49 48 50 52 52 52 54 59 66 63 62 63 63 60 59 61 61 61 57 54 56 63 64 61 60 50 46 49 49 50 59 67
46 50 50 49 51 54 55 53 50 49 48 46 45 45 48 49 50 51 51 50 49 52 53 55 55 53 55 54 55 57 61 60 61 62 62 54 51 53 56 56 60 68 67 68
48 48 49 50 52 51 50 49 49 46 46 45 45 47 47 49 50 51 48 45 44 45 45 50 49 49 50 49 55 59 62 61 62 57 57 58 62 66 64 68 73 77 79 76
51 54 53 51 47 46 47 44 42 41 42 41 43 46 48 50 52 50 45 37 39 49 51 48 52 55 58 59 59 63 63 61 62 65 65 66 69 67 71 76 84 86 84 78
49 45 45 44 47 48 47 48 47 46 46 45 47 50 52 53 55 57 54 56 54 54 56 58 55 57 58 58 59 60 63 61 63 66 68 68 70 77 81 81 87 85 78 74
52 53 54 53 52 51 49 48 47 48 50 52 53 55 53 54 55 56 58 60 55 58 57 61 59 57 56 59 64 65 65 68 70 72 74 80 85 88 88 84 75 72 73 75
42 45 45 47 47 46 46 48 49 49 49 49 51 50 49 50 53 57 59 56 62 67 62 60 56 58 62 64 68 71 68 70 71 74 77 76 71 70 69 69 70 72 75 78
27 37 39 42 43 46 46 45 45 47 46 46 44 42 44 48 52 62 62 60 55 54 64 64 62 63 67 68 67 66 63 64 66 65 65 65 67 69 70 73 76 78 81 84
Wind_Direction
235 234 231 231 228 228 228 227 224 225 228 229 225 225 229 233 237 237 239 243 246 251 255 263 268 272 278 287 292 295 301 308 313 320 323 325 335 322 266 259 266 267 258 263
234 232 229 229 228 226 227 226 222 222 226 227 221 221 225 228 233 235 240 243 245 249 255 261 265 268 276 282 284 289 297 303 309 311 317 324 334 330 277 263 264 266 268 272
230 230 228 227 227 225 226 224 222 220 225 223 218 218 222 227 232 234 239 242 245 247 251 258 263 267 273 275 279 284 290 301 302 307 311 317 321 331 298 275 276 270 265 272
227 227 226 224 225 226 224 226 224 221 225 222 217 217 222 225 230 234 238 241 244 247 251 255 261 265 268 270 275 283 290 296 295 302 308 317 317 326 308 273 276 264 264 260
225 225 224 222 222 224 224 224 222 222 218 216 215 215 218 223 229 234 237 239 243 245 250 254 257 260 264 268 275 282 287 291 294 295 303 310 318 320 305 269 266 260 255 254
225 220 221 221 221 224 225 224 221 221 216 218 218 215 216 220 228 231 233 235 240 241 246 248 252 258 261 266 273 278 284 287 288 293 300 305 315 321 317 278 265 263 259 259
222 220 218 220 222 222 222 222 220 222 217 219 214 216 218 221 226 226 227 232 237 239 241 245 250 256 261 266 272 278 281 281 286 290 295 304 307 311 321 281 263 262 261 259
218 218 217 218 219 219 221 218 218 219 215 214 211 214 216 219 225 225 228 231 235 238 242 245 249 255 260 266 272 275 274 276 281 286 293 299 295 309 317 310 270 262 258 265
214 215 214 215 216 216 218 216 216 217 215 213 209 211 215 220 224 226 228 231 235 236 240 245 248 255 258 264 268 272 275 276 278 283 289 287 293 305 312 316 277 261 267 267
209 212 211 211 213 215 214 213 213 214 212 209 209 210 215 218 222 225 228 231 233 236 239 243 247 253 258 261 263 266 269 270 276 279 286 288 287 304 305 309 278 268 268 270
206 207 208 209 209 212 209 208 211 212 209 208 207 208 213 217 222 223 226 229 232 236 236 241 247 250 251 254 261 265 270 270 274 279 283 282 289 298 301 307 289 267 263 269
203 204 204 206 204 206 204 204 205 206 206 206 206 205 210 213 217 220 224 228 232 232 236 242 242 246 250 253 257 260 263 268 272 282 282 281 288 293 300 299 294 281 267 262
198 198 198 199 196 195 197 200 201 200 201 203 204 202 205 212 219 222 225 228 232 234 235 238 242 245 249 251 255 258 264 268 275 278 275 280 284 290 296 290 279 288 279 270
189 187 188 186 186 188 193 194 194 194 197 200 202 204 204 209 217 222 223 225 227 231 234 238 242 245 248 251 257 261 267 271 275 274 279 274 279 288 290 281 277 278 281 274
179 178 178 180 184 186 188 188 189 191 195 196 200 204 205 209 215 220 222 224 227 233 236 240 243 245 248 250 255 262 266 266 270 277 275 277 280 281 283 277 276 279 282 284
173 175 177 178 184 186 186 187 187 188 190 194 199 202 205 209 213 218 221 225 229 233 237 239 241 244 250 252 256 259 261 265 270 272 274 277 281 284 281 286 282 284 285 281
172 173 178 180 184 184 183 181 185 187 190 192 195 199 204 209 213 218 224 228 231 234 236 238 241 246 251 253 257 260 262 263 266 264 268 272 274 279 283 284 284 284 282 282
172 174 179 179 178 178 179 181 179 183 185 190 195 199 204 208 214 219 223 227 230 233 235 238 242 247 251 253 253 257 261 264 262 256 259 263 268 272 276 280 282 283 284 284
171 173 176 176 177 175 175 175 176 178 181 186 192 197 202 207 211 216 223 228 233 233 236 240 244 246 249 252 254 257 256 255 256 257 260 264 271 275 275 273 280 282 284 283
165 168 173 173 172 172 171 172 171 172 179 184 185 190 196 200 204 211 220 221 229 233 237 240 242 245 249 251 250 250 252 247 249 254 257 264 267 266 270 270 274 279 283 285
159 161 163 168 167 167 166 163 167 173 176 179 183 186 191 192 197 191 207 223 227 232 236 238 239 241 241 241 245 248 247 247 250 262 262 256 260 270 269 268 274 282 292 300
155 160 161 159 159 158 160 161 164 171 175 178 180 185 188 188 193 196 208 216 223 226 229 231 229 233 229 237 246 249 248 254 261 268 269 267 272 276 277 286 294 298 298 297
148 148 150 152 154 156 159 160 164 167 171 177 183 184 186 189 188 194 204 211 227 226 219 229 232 229 233 237 241 249 252 256 260 266 269 267 272 277 281 287 290 293 292 290
141 141 144 148 149 151 155 158 160 165 171 178 184 188 191 192 195 200 195 208 218 230 227 231 235 235 239 244 247 251 261 266 266 266 268 271 274 277 283 285 286 286 286 286
151 149 150 151 157 159 160 163 170 178 185 190 194 197 199 201 206 209 211 217 223 225 230 234 238 240 246 250 250 252 256 262 266 266 266 270 273 275 277 280 281 281 284 287
156 156 160 165 168 169 172 178 186 189 196 200 202 207 208 212 214 217 223 224 228 231 237 238 238 243 247 252 254 258 264 270 272 273 272 272 271 271 273 276 281 283 284 287
164 171 173 175 178 179 187 188 193 199 203 205 212 215 219 221 220 221 227 231 234 238 237 239 241 246 251 251 252 262 261 268 275 274 273 274 275 278 280 283 284 286 287 287
Height
10236 10252 10269 10286 10302 10320 10331 10361 10393 10401 10404 10418 10467 10499 10513 10521 10521 10532 10542 10551 10558 10563 10568 10573 10576 10576 10575 10578 10578 10577 10575 10574 10575 10576 10574 10572 10571 10566 10565 10564 10565 10569 10570 10565
10212 10226 10243 10259 10274 10291 10313 10338 10370 10370 10374 10399 10464 10484 10493 10502 10505 10520 10530 10538 10546 10552 10557 10562 10565 10566 10566 10570 10569 10569 10569 10569 10567 10567 10569 10567 10563 10559 10557 10556 10557 10559 10562 10557
10190 10204 10218 10233 10249 10269 10287 10310 10327 10334 10357 10412 10439 10460 10475 10489 10491 10506 10516 10526 10534 10540 10545 10551 10554 10556 10557 10558 10559 10561 10562 10563 10561 10560 10558 10559 10557 10552 10549 10548 10548 10550 10551 10550
10169 10182 10197 10213 10229 10247 10262 10277 10303 10331 10360 10394 10433 10447 10461 10471 10478 10494 10503 10514 10522 10528 10534 10539 10542 10543 10545 10547 10549 10553 10555 10556 10554 10553 10551 10551 10548 10544 10541 10540 10540 10543 10542 10544
10149 10165 10179 10193 10207 10221 10233 10256 10294 10318 10356 10382 10395 10425 10447 10461 10462 10479 10496 10504 10506 10515 10522 10526 10527 10530 10532 10535 10540 10544 10546 10546 10546 10545 10544 10542 10540 10533 10533 10532 10532 10534 10535 10535
10133 10147 10161 10174 10184 10199 10229 10252 10280 10302 10341 10353 10378 10418 10431 10444 10444 10466 10478 10485 10486 10503 10507 10507 10512 10518 10523 10527 10531 10534 10536 10536 10536 10536 10535 10535 10532 10526 10524 10524 10525 10526 10527 10525
10119 10133 10147 10157 10173 10199 10220 10247 10268 10288 10318 10340 10380 10392 10410 10427 10435 10446 10457 10464 10475 10488 10483 10493 10503 10509 10514 10518 10521 10524 10524 10523 10524 10526 10525 10527 10521 10516 10517 10516 10516 10517 10517 10516
10108 10122 10135 10147 10165 10185 10203 10223 10245 10268 10302 10324 10353 10377 10396 10405 10414 10431 10440 10453 10461 10466 10470 10483 10493 10502 10506 10511 10512 10513 10513 10513 10513 10516 10516 10516 10513 10507 10508 10509 10510 10506 10505 10508
10099 10111 10122 10137 10155 10172 10184 10212 10235 10254 10284 10315 10339 10360 10377 10394 10406 10415 10430 10438 10444 10454 10463 10472 10485 10491 10498 10501 10503 10500 10500 10501 10501 10505 10505 10506 10503 10499 10499 10499 10501 10490 10498 10500
10089 10101 10116 10131 10144 10160 10178 10202 10223 10243 10268 10296 10322 10350 10370 10377 10387 10404 10410 10420 10429 10439 10455 10466 10475 10481 10486 10489 10492 10490 10489 10490 10490 10491 10495 10496 10492 10489 10488 10491 10484 10487 10488 10489
10081 10096 10111 10124 10137 10151 10174 10195 10212 10231 10261 10285 10308 10331 10353 10363 10372 10391 10400 10402 10422 10436 10445 10457 10464 10470 10473 10476 10479 10481 10479 10477 10478 10479 10484 10485 10480 10480 10478 10476 10475 10476 10476 10476
10079 10093 10106 10118 10133 10149 10169 10186 10201 10224 10251 10275 10296 10321 10338 10348 10354 10362 10376 10399 10410 10423 10431 10443 10450 10458 10460 10465 10467 10467 10467 10466 10467 10469 10471 10471 10469 10467 10467 10467 10466 10463 10465 10464
10078 10091 10104 10116 10132 10148 10163 10177 10194 10218 10241 10259 10284 10303 10319 10336 10343 10355 10374 10390 10401 10412 10421 10429 10436 10442 10447 10451 10454 10453 10457 10458 10458 10458 10461 10458 10455 10454 10456 10455 10454 10453 10452 10451
10078 10089 10101 10113 10127 10141 10153 10171 10187 10205 10228 10250 10268 10289 10306 10322 10334 10346 10365 10376 10389 10399 10408 10415 10423 10430 10433 10439 10441 10443 10448 10448 10446 10446 10449 10443 10440 10442 10443 10441 10439 10439 10438 10437
10077 10087 10099 10111 10122 10132 10144 10160 10178 10193 10207 10232 10253 10274 10293 10311 10323 10338 10354 10366 10379 10389 10397 10405 10411 10416 10420 10426 10429 10439 10435 10433 10432 10436 10430 10427 10429 10429 10429 10428 10426 10426 10425 10422
10077 10087 10096 10106 10114 10127 10141 10150 10164 10185 10210 10228 10243 10267 10286 10302 10314 10327 10344 10356 10368 10379 10387 10393 10399 10405 10408 10411 10422 10424 10419 10418 10417 10419 10418 10414 10413 10413 10413 10414 10413 10412 10411 10409
10078 10087 10095 10105 10116 10131 10149 10169 10185 10196 10209 10227 10246 10260 10280 10296 10311 10327 10339 10351 10361 10369 10374 10381 10387 10392 10394 10402 10409 10409 10406 10406 10406 10405 10403 10404 10402 10401 10402 10401 10399 10397 10396 10393
10079 10088 10097 10109 10122 10133 10141 10154 10174 10190 10210 10230 10247 10265 10278 10294 10311 10324 10334 10343 10349 10356 10363 10370 10376 10379 10384 10393 10391 10392 10394 10392 10391 10390 10392 10391 10390 10390 10389 10387 10385 10382 10380 10378
10086 10096 10104 10113 10123 10136 10152 10168 10180 10201 10221 10238 10252 10265 10281 10294 10306 10317 10325 10333 10337 10346 10353 10359 10361 10368 10375 10379 10376 10376 10378 10379 10380 10379 10378 10377 10379 10377 10376 10374 10373 10370 10367 10364
10095 10106 10115 10123 10132 10147 10162 10173 10188 10206 10221 10234 10247 10263 10275 10286 10299 10310 10318 10318 10323 10335 10341 10345 10350 10357 10360 10360 10360 10361 10361 10364 10365 10363 10363 10365 10366 10364 10363 10362 10360 10358 10356 10351
10105 10114 10124 10136 10149 10159 10170 10186 10200 10213 10224 10237 10250 10261 10271 10281 10291 10299 10303 10310 10319 10324 10331 10334 10340 10347 10344 10345 10347 10347 10347 10349 10351 10351 10352 10352 10351 10350 10348 10347 10345 10342 10335 10331
10116 10126 10137 10149 10159 10170 10183 10194 10202 10215 10227 10238 10248 10258 10268 10277 10284 10292 10300 10304 10310 10315 10320 10320 10328 10332 10332 10333 10334 10335 10337 10338 10339 10339 10338 10338 10336 10333 10332 10329 10321 10318 10312 10310
10129 10138 10149 10160 10173 10184 10192 10203 10212 10223 10230 10241 10250 10257 10264 10270 10279 10285 10292 10297 10301 10303 10307 10313 10317 10318 10319 10320 10323 10325 10326 10326 10326 10326 10326 10325 10323 10319 10317 10314 10306 10304 10300 10294
10146 10156 10165 10174 10182 10189 10198 10204 10214 10223 10232 10240 10247 10252 10259 10267 10273 10277 10280 10283 10289 10296 10302 10302 10303 10306 10310 10312 10314 10315 10315 10315 10315 10314 10312 10310 10308 10304 10301 10299 10296 10289 10283 10278
10153 10161 10169 10177 10186 10194 10203 10212 10220 10226 10232 10237 10242 10248 10256 10262 10268 10273 10278 10281 10285 10288 10289 10292 10295 10298 10299 10300 10301 10303 10304 10303 10302 10301 10299 10296 10294 10290 10285 10280 10276 10270 10265 10258
10170 10175 10181 10188 10195 10202 10209 10213 10218 10225 10231 10237 10243 10249 10255 10261 10266 10268 10271 10275 10278 10279 10282 10285 10288 10290 10290 10291 10291 10291 10292 10292 10289 10285 10282 10278 10275 10271 10267 10262 10256 10250 10243 10236
10180 10182 10187 10194 10200 10205 10209 10215 10220 10226 10231 10235 10240 10246 10250 10254 10259 10261 10264 10267 10270 10272 10274 10276 10277 10278 10279 10279 10281 10280 10278 10274 10270 10266 10262 10259 10255 10250 10246 10241 10235 10229 10223 10216